TRA5371 EHRD-LGIR

Flight info

Callsign TRA5371
Flight time 3h 27m
Altitude 35000
Route LUNIX Z739 MISGO/N0449F370 DCT DOJOH DCT DODEN DCT NEGIX DCT DINKU M867 XERUM DCT BAVAX DCT RADIZ DCT DIGOT DCT NUPSO/N0458F390 DCT OKLAX DCT SPL DCT ORAKA DCT GISAM DCT CRAYE DCT GONOT DCT PAPIZ DCT DIMIS DCT IPTES UL604 TRL UM601 EKTOS DCT MIL UL617 XAVIS
Aircraft B737/M-SDE2E3FGHIRWXY/LB1

Departure

Time 2026-04-30 10:02
Airport Rotterdam The Hague Airport (EHRD)

Arrival

Time 2026-04-30 13:29
Airport Heraklion International Nikos Kazantzakis Airport (LGIR)
Time Latitude Longitude Altitude Speed Heading
2026-04-30 09:28 51.95093 4.43429 -3 ft 0 kts 328°
2026-04-30 09:58 51.95098 4.43424 -3 ft 3 kts 328°
2026-04-30 09:59 51.95175 4.43486 -6 ft 11 kts
2026-04-30 09:59 51.95198 4.43276 -3 ft 15 kts 238°
2026-04-30 10:00 51.95121 4.42960 -6 ft 12 kts 295°
2026-04-30 10:00 51.95181 4.42877 -6 ft 9 kts 326°
2026-04-30 10:01 51.95242 4.42903 -6 ft 0 kts 57°
2026-04-30 10:01 51.95400 4.43293 -3 ft 93 kts 54°
2026-04-30 10:01 51.95921 4.44597 167 ft 170 kts 57°
2026-04-30 10:02 51.97308 4.48175 1878 ft 208 kts 58°
2026-04-30 10:02 51.98051 4.50267 2592 ft 219 kts 63°
2026-04-30 10:02 51.98756 4.52612 2790 ft 243 kts 63°
2026-04-30 10:02 51.99493 4.55026 2626 ft 237 kts 63°
2026-04-30 10:03 52.00391 4.57255 2608 ft 237 kts 44°
2026-04-30 10:03 52.01802 4.58635 2625 ft 238 kts 22°
2026-04-30 10:03 52.03327 4.59682 2632 ft 238 kts 23°
2026-04-30 10:03 52.04797 4.60834 2972 ft 238 kts 31°
2026-04-30 10:04 52.06046 4.62612 3378 ft 240 kts 46°
2026-04-30 10:04 52.07203 4.64594 3779 ft 242 kts 45°
2026-04-30 10:04 52.08360 4.66540 4173 ft 243 kts 46°
2026-04-30 10:04 52.09531 4.68516 4571 ft 245 kts 46°
2026-04-30 10:05 52.10721 4.70523 4974 ft 246 kts 46°
2026-04-30 10:05 52.11908 4.72527 5349 ft 250 kts 46°
2026-04-30 10:05 52.13113 4.74563 5750 ft 250 kts 46°
2026-04-30 10:05 52.14310 4.76587 6151 ft 251 kts 46°
2026-04-30 10:06 52.15430 4.78743 6550 ft 252 kts 58°
2026-04-30 10:06 52.16095 4.81393 6960 ft 254 kts 73°
2026-04-30 10:06 52.16600 4.84166 7364 ft 255 kts 73°
2026-04-30 10:06 52.17135 4.86979 7771 ft 266 kts 73°
2026-04-30 10:07 52.17683 4.89870 8171 ft 270 kts 73°
2026-04-30 10:07 52.18235 4.92790 8570 ft 272 kts 73°
2026-04-30 10:07 52.18790 4.95723 8969 ft 274 kts 73°
2026-04-30 10:07 52.19352 4.98701 9370 ft 275 kts 73°
2026-04-30 10:08 52.19914 5.01677 9753 ft 280 kts 73°
2026-04-30 10:08 52.20519 5.04890 10149 ft 308 kts 73°
2026-04-30 10:08 52.21167 5.08340 10559 ft 324 kts 73°
2026-04-30 10:08 52.21828 5.11863 10962 ft 327 kts 73°
2026-04-30 10:09 52.22488 5.15385 11360 ft 329 kts 73°
2026-04-30 10:09 52.23152 5.18942 11762 ft 331 kts 73°
2026-04-30 10:09 52.23698 5.22589 12160 ft 333 kts 83°
2026-04-30 10:09 52.23582 5.26370 12565 ft 334 kts 104°
2026-04-30 10:10 52.22641 5.29797 12970 ft 336 kts 123°
2026-04-30 10:10 52.21283 5.32915 13379 ft 339 kts 126°
2026-04-30 10:10 52.19927 5.36014 13775 ft 341 kts 125°
2026-04-30 10:10 52.18544 5.39209 14179 ft 343 kts 125°
2026-04-30 10:11 52.17186 5.42335 14573 ft 345 kts 125°
2026-04-30 10:11 52.15783 5.45555 14977 ft 347 kts 125°
2026-04-30 10:11 52.14403 5.48719 15373 ft 349 kts 125°
2026-04-30 10:11 52.12986 5.51964 15776 ft 351 kts 125°
2026-04-30 10:12 52.11584 5.55168 16173 ft 353 kts 125°
2026-04-30 10:12 52.10157 5.58426 16574 ft 355 kts 125°
2026-04-30 10:12 52.08722 5.61697 16975 ft 357 kts 125°
2026-04-30 10:12 52.07263 5.65020 17380 ft 359 kts 126°
2026-04-30 10:13 52.05800 5.68278 17776 ft 362 kts 128°
2026-04-30 10:13 52.04172 5.71378 18176 ft 364 kts 132°
2026-04-30 10:13 52.02475 5.74474 18580 ft 366 kts 131°
2026-04-30 10:13 52.00814 5.77549 18976 ft 368 kts 131°
2026-04-30 10:14 51.99118 5.80702 19378 ft 370 kts 131°
2026-04-30 10:14 51.97419 5.83857 19780 ft 373 kts 131°
2026-04-30 10:14 51.94011 5.90216 20579 ft 377 kts 131°
2026-04-30 10:15 51.92305 5.93397 20976 ft 379 kts 131°
2026-04-30 10:15 51.90559 5.96647 21379 ft 382 kts 131°
2026-04-30 10:15 51.88830 5.99862 21776 ft 384 kts 131°
2026-04-30 10:15 51.87055 6.03160 22181 ft 387 kts 131°
2026-04-30 10:16 51.85293 6.06427 22580 ft 389 kts 131°
2026-04-30 10:16 51.83504 6.09723 22981 ft 391 kts 131°
2026-04-30 10:16 51.81708 6.13018 23381 ft 394 kts 131°
2026-04-30 10:17 51.78099 6.19636 24176 ft 399 kts 131°
2026-04-30 10:17 51.74410 6.26377 24978 ft 403 kts 131°
2026-04-30 10:17 51.72560 6.29751 25377 ft 406 kts 131°
2026-04-30 10:18 51.70693 6.33149 25775 ft 407 kts 131°
2026-04-30 10:18 51.68795 6.36600 26179 ft 407 kts 131°
2026-04-30 10:18 51.66939 6.39971 26574 ft 407 kts 131°
2026-04-30 10:19 51.63197 6.46754 27372 ft 405 kts 131°
2026-04-30 10:19 51.61318 6.50155 27775 ft 405 kts 131°
2026-04-30 10:19 51.59476 6.53486 28170 ft 404 kts 131°
2026-04-30 10:19 51.57613 6.56849 28571 ft 403 kts 131°
2026-04-30 10:20 51.55753 6.60202 28971 ft 402 kts 131°
2026-04-30 10:20 51.52049 6.66867 29770 ft 401 kts 132°
2026-04-30 10:20 51.50191 6.70204 30172 ft 400 kts 132°
2026-04-30 10:21 51.48352 6.73500 30570 ft 399 kts 132°
2026-04-30 10:21 51.46518 6.76786 30967 ft 399 kts 132°
2026-04-30 10:21 51.44667 6.80096 31369 ft 398 kts 132°
2026-04-30 10:21 51.42809 6.83415 31773 ft 397 kts 132°
2026-04-30 10:22 51.40973 6.86691 32172 ft 397 kts 132°
2026-04-30 10:22 51.39091 6.89881 32571 ft 396 kts 135°
2026-04-30 10:22 51.37130 6.92901 32968 ft 395 kts 136°
2026-04-30 10:22 51.35138 6.95945 33370 ft 395 kts 136°
2026-04-30 10:23 51.33188 6.98954 33767 ft 394 kts 136°
2026-04-30 10:23 51.31204 7.02020 34172 ft 393 kts 136°
2026-04-30 10:23 51.29246 7.05040 34571 ft 392 kts 136°
2026-04-30 10:23 51.27306 7.08035 34937 ft 393 kts 136°
2026-04-30 10:24 51.23383 7.14082 34998 ft 391 kts 136°
2026-04-30 10:24 51.19495 7.20065 35001 ft 388 kts 136°
2026-04-30 10:25 51.15632 7.25997 35000 ft 389 kts 136°
2026-04-30 10:25 51.11745 7.31952 35000 ft 389 kts 136°
2026-04-30 10:26 51.07853 7.37900 35000 ft 389 kts 136°
2026-04-30 10:26 51.03953 7.43847 35000 ft 389 kts 136°
2026-04-30 10:27 51.00075 7.49744 35000 ft 389 kts 136°
2026-04-30 10:27 50.96157 7.55690 35000 ft 389 kts 136°
2026-04-30 10:28 50.92268 7.61575 35000 ft 389 kts 136°
2026-04-30 10:28 50.88362 7.67473 35000 ft 389 kts 136°
2026-04-30 10:29 50.84473 7.73330 35000 ft 389 kts 136°
2026-04-30 10:29 50.80544 7.79210 35000 ft 389 kts 137°
2026-04-30 10:30 50.76609 7.85069 35000 ft 389 kts 137°
2026-04-30 10:30 50.72702 7.90876 35000 ft 389 kts 137°
2026-04-30 10:31 50.68763 7.96716 35000 ft 389 kts 137°
2026-04-30 10:31 50.64827 8.02537 35000 ft 389 kts 137°
2026-04-30 10:32 50.60924 8.08337 34999 ft 389 kts 135°
2026-04-30 10:32 50.57442 8.14805 35001 ft 389 kts 128°
2026-04-30 10:33 50.54081 8.21438 34999 ft 389 kts 128°
2026-04-30 10:33 50.50709 8.28051 35000 ft 389 kts 128°
2026-04-30 10:34 50.47332 8.34661 35000 ft 389 kts 128°
2026-04-30 10:34 50.43938 8.41289 35000 ft 389 kts 128°
2026-04-30 10:35 50.40572 8.47846 35000 ft 389 kts 128°
2026-04-30 10:35 50.37154 8.54422 34999 ft 389 kts 131°
2026-04-30 10:36 50.33483 8.60552 35000 ft 389 kts 133°
2026-04-30 10:36 50.29765 8.66738 35000 ft 389 kts 133°
2026-04-30 10:37 50.26076 8.72880 34999 ft 389 kts 133°
2026-04-30 10:37 50.22388 8.79018 34999 ft 389 kts 133°
2026-04-30 10:38 50.18711 8.85127 34999 ft 389 kts 133°
2026-04-30 10:38 50.15019 8.91248 34999 ft 389 kts 133°
2026-04-30 10:39 50.11318 8.97369 35000 ft 389 kts 133°
2026-04-30 10:39 50.07623 9.03467 35000 ft 389 kts 133°
2026-04-30 10:40 50.03912 9.09578 35000 ft 389 kts 133°
2026-04-30 10:40 50.00207 9.15663 35000 ft 389 kts 133°
2026-04-30 10:41 49.96500 9.21738 35000 ft 389 kts 133°
2026-04-30 10:41 49.92790 9.27802 35000 ft 389 kts 133°
2026-04-30 10:42 49.89055 9.33894 35000 ft 389 kts 133°
2026-04-30 10:42 49.85339 9.39939 34999 ft 389 kts 133°
2026-04-30 10:43 49.81615 9.45984 34999 ft 389 kts 133°
2026-04-30 10:43 49.77906 9.51989 34999 ft 389 kts 133°
2026-04-30 10:44 49.74155 9.58047 34999 ft 389 kts 133°
2026-04-30 10:44 49.70437 9.64040 34999 ft 389 kts 133°
2026-04-30 10:45 49.66707 9.70037 35000 ft 389 kts 134°
2026-04-30 10:45 49.62958 9.76048 35000 ft 389 kts 134°
2026-04-30 10:46 49.59220 9.82029 35000 ft 389 kts 134°
2026-04-30 10:46 49.55459 9.88033 35000 ft 389 kts 134°
2026-04-30 10:47 49.51720 9.93987 35000 ft 389 kts 134°
2026-04-30 10:47 49.47958 9.99964 35000 ft 389 kts 134°
2026-04-30 10:48 49.44211 10.05903 35000 ft 389 kts 134°
2026-04-30 10:48 49.40450 10.11850 35000 ft 389 kts 134°
2026-04-30 10:49 49.36688 10.17786 35000 ft 389 kts 134°
2026-04-30 10:49 49.32930 10.23700 35000 ft 389 kts 134°
2026-04-30 10:50 49.29161 10.29617 35000 ft 389 kts 134°
2026-04-30 10:50 49.25400 10.35457 34999 ft 389 kts 136°
2026-04-30 10:51 49.21128 10.40467 35000 ft 389 kts 148°
2026-04-30 10:51 49.16506 10.44709 35000 ft 389 kts 148°
2026-04-30 10:52 49.11887 10.48957 35000 ft 389 kts 149°
2026-04-30 10:52 49.07274 10.53166 35000 ft 389 kts 149°
2026-04-30 10:53 49.02611 10.57402 35000 ft 389 kts 149°
2026-04-30 10:53 48.98006 10.61571 35000 ft 389 kts 149°
2026-04-30 10:54 48.93357 10.65769 35000 ft 389 kts 149°
2026-04-30 10:54 48.88735 10.69932 34999 ft 389 kts 149°
2026-04-30 10:55 48.84085 10.74118 34999 ft 389 kts 148°
2026-04-30 10:55 48.79814 10.79097 34998 ft 389 kts 134°
2026-04-30 10:56 48.76183 10.85142 35000 ft 389 kts 132°
2026-04-30 10:56 48.72552 10.91193 35000 ft 389 kts 132°
2026-04-30 10:57 48.68932 10.97233 35000 ft 389 kts 132°
2026-04-30 10:57 48.65316 11.03260 35000 ft 389 kts 132°
2026-04-30 10:58 48.61705 11.09271 34999 ft 389 kts 132°
2026-04-30 10:58 48.58064 11.15321 34999 ft 389 kts 132°
2026-04-30 10:59 48.54431 11.21342 35000 ft 389 kts 132°
2026-04-30 10:59 48.50792 11.27362 34999 ft 389 kts 132°
2026-04-30 11:00 48.47151 11.33371 35000 ft 389 kts 132°
2026-04-30 11:00 48.43534 11.39327 35000 ft 389 kts 132°
2026-04-30 11:01 48.39866 11.45353 35000 ft 389 kts 132°
2026-04-30 11:01 48.36221 11.51329 35000 ft 389 kts 132°
2026-04-30 11:02 48.32587 11.57271 35000 ft 389 kts 132°
2026-04-30 11:02 48.28916 11.63261 35000 ft 389 kts 132°
2026-04-30 11:03 48.25223 11.69155 34998 ft 389 kts 136°
2026-04-30 11:04 48.19231 11.77311 34999 ft 389 kts 138°
2026-04-30 11:04 48.15253 11.82749 34999 ft 389 kts 137°
2026-04-30 11:05 48.11298 11.88153 34999 ft 389 kts 137°
2026-04-30 11:05 48.07312 11.93596 34999 ft 389 kts 137°
2026-04-30 11:06 48.03311 11.99050 35000 ft 389 kts 137°
2026-04-30 11:06 47.99342 12.04450 35000 ft 389 kts 137°
2026-04-30 11:07 47.95330 12.09898 35000 ft 389 kts 137°
2026-04-30 11:07 47.91342 12.15300 35000 ft 389 kts 137°
2026-04-30 11:08 47.87375 12.20664 34999 ft 389 kts 137°
2026-04-30 11:08 47.83375 12.26061 34999 ft 389 kts 137°
2026-04-30 11:09 47.79359 12.31467 34999 ft 389 kts 137°
2026-04-30 11:09 47.75372 12.36823 34999 ft 389 kts 137°
2026-04-30 11:10 47.71363 12.42196 34999 ft 389 kts 137°
2026-04-30 11:10 47.67371 12.47535 34999 ft 389 kts 137°
2026-04-30 11:11 47.63341 12.52913 34999 ft 389 kts 138°
2026-04-30 11:11 47.59029 12.57684 35001 ft 389 kts 145°
2026-04-30 11:12 47.54609 12.62213 35000 ft 389 kts 144°
2026-04-30 11:12 47.50183 12.66780 35000 ft 389 kts 145°
2026-04-30 11:13 47.45743 12.71358 35000 ft 389 kts 145°
2026-04-30 11:13 47.43020 12.74162 34965 ft 389 kts 145°
2026-04-30 11:14 47.38575 12.78734 35011 ft 399 kts 145°
2026-04-30 11:14 47.33919 12.83516 35009 ft 415 kts 145°
2026-04-30 11:15 47.29116 12.88437 35002 ft 430 kts 145°
2026-04-30 11:15 47.24172 12.93491 35000 ft 443 kts 145°
2026-04-30 11:16 47.19070 12.98695 34998 ft 449 kts 145°
2026-04-30 11:16 47.13959 13.03896 34998 ft 447 kts 145°
2026-04-30 11:17 47.08863 13.09068 34998 ft 446 kts 145°
2026-04-30 11:17 47.03796 13.14200 34999 ft 446 kts 145°
2026-04-30 11:18 46.98693 13.19356 34999 ft 447 kts 145°
2026-04-30 11:18 46.91048 13.27057 35000 ft 446 kts 145°
2026-04-30 11:19 46.85922 13.32205 34999 ft 446 kts 145°
2026-04-30 11:19 46.80822 13.37315 34999 ft 446 kts 145°
2026-04-30 11:20 46.75735 13.42400 34999 ft 446 kts 145°
2026-04-30 11:20 46.70599 13.47522 34999 ft 446 kts 145°
2026-04-30 11:21 46.65514 13.52582 34999 ft 446 kts 145°
2026-04-30 11:21 46.60404 13.57654 34999 ft 446 kts 145°
2026-04-30 11:22 46.55291 13.62718 34999 ft 446 kts 145°
2026-04-30 11:22 46.50171 13.67776 35000 ft 446 kts 146°
2026-04-30 11:23 46.45045 13.72829 34999 ft 446 kts 146°
2026-04-30 11:24 46.37360 13.80383 34999 ft 446 kts 146°
2026-04-30 11:24 46.32224 13.85416 34999 ft 446 kts 146°
2026-04-30 11:25 46.24529 13.92935 34999 ft 446 kts 146°
2026-04-30 11:26 46.14287 14.02904 35000 ft 446 kts 146°
2026-04-30 11:26 46.09140 14.07897 34999 ft 446 kts 146°
2026-04-30 11:27 46.03999 14.12871 35000 ft 446 kts 146°
2026-04-30 11:27 45.98862 14.17831 35000 ft 446 kts 146°
2026-04-30 11:28 45.91153 14.25253 35000 ft 446 kts 146°
2026-04-30 11:29 45.86024 14.30176 34999 ft 446 kts 146°
2026-04-30 11:29 45.78302 14.37569 34999 ft 446 kts 146°
2026-04-30 11:30 45.70566 14.44950 34999 ft 446 kts 146°
2026-04-30 11:31 45.65412 14.49853 34999 ft 446 kts 146°
2026-04-30 11:31 45.60278 14.54726 34999 ft 446 kts 146°
2026-04-30 11:32 45.55106 14.59625 34999 ft 446 kts 146°
2026-04-30 11:32 45.49931 14.64515 34999 ft 446 kts 146°
2026-04-30 11:33 45.42192 14.71808 34999 ft 446 kts 147°
2026-04-30 11:33 45.37024 14.76664 34999 ft 446 kts 147°
2026-04-30 11:34 45.31866 14.81500 34999 ft 446 kts 147°
2026-04-30 11:34 45.26698 14.86335 34999 ft 446 kts 147°
2026-04-30 11:35 45.21520 14.91168 34999 ft 446 kts 147°
2026-04-30 11:35 45.16370 14.95965 34999 ft 446 kts 147°
2026-04-30 11:36 45.11193 15.00776 35000 ft 446 kts 147°
2026-04-30 11:36 45.06025 15.05568 35000 ft 446 kts 147°
2026-04-30 11:37 45.00812 15.10391 35000 ft 446 kts 147°
2026-04-30 11:37 44.95650 15.15157 35000 ft 446 kts 147°
2026-04-30 11:38 44.90477 15.19921 35000 ft 446 kts 147°
2026-04-30 11:38 44.85281 15.24698 34999 ft 446 kts 147°
2026-04-30 11:39 44.80094 15.29454 34999 ft 446 kts 147°
2026-04-30 11:39 44.74889 15.34218 34999 ft 447 kts 147°
2026-04-30 11:40 44.69715 15.38943 34999 ft 446 kts 147°
2026-04-30 11:40 44.64520 15.43676 34999 ft 446 kts 147°
2026-04-30 11:41 44.59326 15.48398 34999 ft 446 kts 147°
2026-04-30 11:41 44.54140 15.53103 34999 ft 446 kts 147°
2026-04-30 11:42 44.48916 15.57832 35000 ft 446 kts 147°
2026-04-30 11:42 44.43724 15.62522 35000 ft 446 kts 147°
2026-04-30 11:43 44.38490 15.67195 34999 ft 446 kts 150°
2026-04-30 11:43 44.33037 15.71182 35000 ft 446 kts 153°
2026-04-30 11:44 44.27528 15.75114 34999 ft 447 kts 153°
2026-04-30 11:44 44.22004 15.79076 34999 ft 446 kts 153°
2026-04-30 11:45 44.16530 15.83001 34999 ft 446 kts 153°
2026-04-30 11:45 44.10996 15.86967 34999 ft 446 kts 153°
2026-04-30 11:46 44.05521 15.90888 34999 ft 446 kts 153°
2026-04-30 11:46 44.00017 15.94824 34999 ft 446 kts 153°
2026-04-30 11:47 43.94510 15.98754 34999 ft 446 kts 153°
2026-04-30 11:47 43.89017 16.02666 35000 ft 446 kts 153°
2026-04-30 11:48 43.83508 16.06582 34999 ft 446 kts 153°
2026-04-30 11:48 43.77973 16.10510 34999 ft 446 kts 153°
2026-04-30 11:49 43.72492 16.14391 34999 ft 446 kts 153°
2026-04-30 11:49 43.66969 16.18293 34999 ft 446 kts 153°
2026-04-30 11:50 43.61471 16.22170 35000 ft 446 kts 153°
2026-04-30 11:50 43.55933 16.26067 34999 ft 446 kts 153°
2026-04-30 11:51 43.50439 16.29947 34999 ft 446 kts 151°
2026-04-30 11:51 43.45267 16.34576 35001 ft 446 kts 144°
2026-04-30 11:52 43.40185 16.39447 35000 ft 447 kts 145°
2026-04-30 11:52 43.35090 16.44282 35000 ft 446 kts 145°
2026-04-30 11:53 43.29985 16.49114 35000 ft 446 kts 145°
2026-04-30 11:53 43.24901 16.53912 35000 ft 446 kts 145°
2026-04-30 11:54 43.19793 16.58722 35000 ft 446 kts 145°
2026-04-30 11:54 43.14675 16.63531 35000 ft 446 kts 145°
2026-04-30 11:55 43.09566 16.68321 34999 ft 446 kts 146°
2026-04-30 11:55 43.04471 16.73087 34999 ft 446 kts 146°
2026-04-30 11:56 42.99359 16.77859 34999 ft 446 kts 146°
2026-04-30 11:56 42.94221 16.82645 34999 ft 446 kts 146°
2026-04-30 11:57 42.89141 16.87368 34999 ft 446 kts 146°
2026-04-30 11:57 42.84001 16.92137 35000 ft 446 kts 146°
2026-04-30 11:58 42.78902 16.96858 35000 ft 446 kts 146°
2026-04-30 11:58 42.73779 17.01592 35000 ft 446 kts 146°
2026-04-30 11:59 42.68653 17.06319 34999 ft 446 kts 146°
2026-04-30 11:59 42.63531 17.11031 34999 ft 446 kts 146°
2026-04-30 12:00 42.58392 17.15751 35000 ft 446 kts 146°
2026-04-30 12:00 42.53274 17.20441 34999 ft 446 kts 146°
2026-04-30 12:01 42.48142 17.25124 35000 ft 446 kts 146°
2026-04-30 12:01 42.43024 17.29783 35000 ft 447 kts 146°
2026-04-30 12:02 42.37864 17.34472 35000 ft 446 kts 146°
2026-04-30 12:02 42.32713 17.39143 35000 ft 446 kts 146°
2026-04-30 12:03 42.25000 17.46120 35000 ft 446 kts 146°
2026-04-30 12:04 42.19861 17.50757 35000 ft 446 kts 146°
2026-04-30 12:04 42.14714 17.55392 35000 ft 446 kts 146°
2026-04-30 12:05 42.09589 17.59999 35000 ft 446 kts 146°
2026-04-30 12:05 42.04443 17.64614 35000 ft 446 kts 146°
2026-04-30 12:06 41.99273 17.69243 34999 ft 446 kts 147°
2026-04-30 12:06 41.94134 17.73834 34999 ft 446 kts 147°
2026-04-30 12:07 41.88955 17.78464 34999 ft 446 kts 146°
2026-04-30 12:07 41.83836 17.83056 35000 ft 446 kts 146°
2026-04-30 12:08 41.78667 17.87681 35000 ft 446 kts 146°
2026-04-30 12:08 41.73537 17.92262 35000 ft 446 kts 146°
2026-04-30 12:09 41.68371 17.96866 35000 ft 446 kts 146°
2026-04-30 12:09 41.63202 18.01463 35000 ft 446 kts 146°
2026-04-30 12:10 41.58082 18.06007 35000 ft 446 kts 146°
2026-04-30 12:10 41.52902 18.10596 35000 ft 446 kts 146°
2026-04-30 12:11 41.47792 18.15242 34999 ft 446 kts 143°
2026-04-30 12:11 41.42833 18.20148 35000 ft 447 kts 143°
2026-04-30 12:12 41.37839 18.25041 35000 ft 446 kts 143°
2026-04-30 12:12 41.32845 18.29917 35000 ft 446 kts 143°
2026-04-30 12:13 41.27838 18.34789 35000 ft 446 kts 143°
2026-04-30 12:13 41.23088 18.40038 34998 ft 446 kts 134°
2026-04-30 12:14 41.19110 18.46285 35002 ft 447 kts 128°
2026-04-30 12:14 41.15194 18.52688 34999 ft 447 kts 129°
2026-04-30 12:15 41.11303 18.59050 35000 ft 446 kts 128°
2026-04-30 12:15 41.07406 18.65427 35000 ft 446 kts 129°
2026-04-30 12:16 41.03495 18.71822 34999 ft 446 kts 129°
2026-04-30 12:16 40.99606 18.78173 34999 ft 446 kts 129°
2026-04-30 12:17 40.93756 18.87708 34999 ft 446 kts 129°
2026-04-30 12:17 40.89856 18.94051 34999 ft 446 kts 129°
2026-04-30 12:18 40.86356 19.00793 35001 ft 446 kts 122°
2026-04-30 12:18 40.83040 19.07702 34999 ft 447 kts 122°
2026-04-30 12:19 40.79681 19.14610 34999 ft 446 kts 122°
2026-04-30 12:19 40.76342 19.21453 34999 ft 446 kts 122°
2026-04-30 12:20 40.72973 19.28336 34999 ft 446 kts 123°
2026-04-30 12:20 40.69612 19.35183 34999 ft 446 kts 123°
2026-04-30 12:21 40.66261 19.41991 34999 ft 446 kts 123°
2026-04-30 12:21 40.62868 19.48869 34999 ft 446 kts 123°
2026-04-30 12:22 40.59494 19.55693 34999 ft 446 kts 123°
2026-04-30 12:22 40.56123 19.62495 34999 ft 446 kts 123°
2026-04-30 12:23 40.52739 19.69309 35000 ft 446 kts 123°
2026-04-30 12:23 40.49332 19.76154 35000 ft 446 kts 123°
2026-04-30 12:24 40.45959 19.82915 34999 ft 446 kts 123°
2026-04-30 12:24 40.42556 19.89720 35000 ft 446 kts 123°
2026-04-30 12:25 40.39164 19.96491 35000 ft 446 kts 123°
2026-04-30 12:25 40.35741 20.03306 35000 ft 446 kts 123°
2026-04-30 12:26 40.32330 20.10084 35000 ft 446 kts 123°
2026-04-30 12:26 40.28925 20.16837 35000 ft 446 kts 123°
2026-04-30 12:27 40.25511 20.23591 35000 ft 446 kts 123°
2026-04-30 12:27 40.22082 20.30360 35000 ft 446 kts 123°
2026-04-30 12:28 40.18673 20.37075 35000 ft 446 kts 123°
2026-04-30 12:28 40.15232 20.43839 35000 ft 446 kts 123°
2026-04-30 12:29 40.11750 20.50526 34996 ft 446 kts 129°
2026-04-30 12:29 40.07332 20.56176 35004 ft 446 kts 137°
2026-04-30 12:30 40.02809 20.61628 34999 ft 447 kts 136°
2026-04-30 12:30 39.98296 20.67165 34999 ft 446 kts 137°
2026-04-30 12:31 39.93782 20.72727 34999 ft 446 kts 137°
2026-04-30 12:31 39.89281 20.78284 34999 ft 446 kts 136°
2026-04-30 12:32 39.84793 20.83828 34999 ft 446 kts 136°
2026-04-30 12:32 39.80296 20.89380 35000 ft 446 kts 136°
2026-04-30 12:33 39.75822 20.94894 35000 ft 446 kts 136°
2026-04-30 12:33 39.71337 21.00415 34999 ft 446 kts 136°
2026-04-30 12:34 39.66832 21.05952 35000 ft 446 kts 136°
2026-04-30 12:34 39.62340 21.11462 34999 ft 446 kts 136°
2026-04-30 12:35 39.57838 21.16973 35000 ft 446 kts 136°
2026-04-30 12:35 39.53321 21.22494 35000 ft 446 kts 136°
2026-04-30 12:36 39.48830 21.27973 34999 ft 446 kts 136°
2026-04-30 12:36 39.44326 21.33458 35000 ft 446 kts 136°
2026-04-30 12:37 39.39799 21.38959 35000 ft 446 kts 136°
2026-04-30 12:37 39.35291 21.44428 35000 ft 446 kts 136°
2026-04-30 12:38 39.30772 21.49899 35000 ft 446 kts 136°
2026-04-30 12:38 39.26268 21.55343 35000 ft 446 kts 136°
2026-04-30 12:39 39.21736 21.60810 35000 ft 446 kts 136°
2026-04-30 12:39 39.17213 21.66257 35000 ft 447 kts 137°
2026-04-30 12:40 39.12691 21.71691 34999 ft 446 kts 137°
2026-04-30 12:40 39.08157 21.77131 34999 ft 446 kts 137°
2026-04-30 12:41 39.03632 21.82549 34999 ft 446 kts 137°
2026-04-30 12:41 38.99096 21.87971 34999 ft 446 kts 137°
2026-04-30 12:42 38.94561 21.93381 34999 ft 446 kts 137°
2026-04-30 12:42 38.90015 21.98795 35000 ft 446 kts 137°
2026-04-30 12:43 38.85482 22.04184 35000 ft 446 kts 137°
2026-04-30 12:43 38.80928 22.09587 34999 ft 446 kts 137°
2026-04-30 12:44 38.76388 22.14963 34999 ft 446 kts 137°
2026-04-30 12:44 38.71809 22.20259 34999 ft 446 kts 140°
2026-04-30 12:45 38.66941 22.25187 35000 ft 446 kts 141°
2026-04-30 12:45 38.62106 22.30116 34999 ft 446 kts 141°
2026-04-30 12:46 38.57258 22.35076 34999 ft 446 kts 141°
2026-04-30 12:46 38.52460 22.39988 35000 ft 446 kts 141°
2026-04-30 12:47 38.47631 22.44930 34999 ft 446 kts 141°
2026-04-30 12:47 38.42803 22.49867 35000 ft 446 kts 141°
2026-04-30 12:48 38.37948 22.54825 35000 ft 446 kts 141°
2026-04-30 12:48 38.33109 22.59759 35000 ft 446 kts 141°
2026-04-30 12:49 38.28284 22.64671 35000 ft 446 kts 141°
2026-04-30 12:49 38.23440 22.69594 34999 ft 446 kts 141°
2026-04-30 12:50 38.18618 22.74486 34999 ft 446 kts 141°
2026-04-30 12:50 38.13768 22.79398 34999 ft 446 kts 141°
2026-04-30 12:51 38.08951 22.84269 34999 ft 446 kts 141°
2026-04-30 12:51 38.04104 22.89160 34999 ft 446 kts 141°
2026-04-30 12:52 37.99263 22.94038 34999 ft 446 kts 141°
2026-04-30 12:52 37.94382 22.98947 35000 ft 446 kts 141°
2026-04-30 12:53 37.89560 23.03789 35000 ft 446 kts 141°
2026-04-30 12:53 37.84699 23.08660 34999 ft 446 kts 141°
2026-04-30 12:54 37.79845 23.13517 34999 ft 446 kts 141°
2026-04-30 12:54 37.77416 23.15945 34893 ft 449 kts 141°
2026-04-30 12:54 37.74961 23.18395 34585 ft 450 kts 141°
2026-04-30 12:55 37.72520 23.20830 34284 ft 447 kts 141°
2026-04-30 12:55 37.70109 23.23233 33986 ft 446 kts 141°
2026-04-30 12:55 37.67661 23.25671 33685 ft 445 kts 141°
2026-04-30 12:55 37.65250 23.28070 33388 ft 446 kts 141°
2026-04-30 12:56 37.62809 23.30496 33087 ft 446 kts 141°
2026-04-30 12:56 37.60389 23.32900 32756 ft 447 kts 141°
2026-04-30 12:56 37.57956 23.35314 32356 ft 449 kts 141°
2026-04-30 12:56 37.55518 23.37732 31958 ft 450 kts 141°
2026-04-30 12:57 37.53046 23.40180 31554 ft 450 kts 141°
2026-04-30 12:57 37.50594 23.42608 31154 ft 450 kts 141°
2026-04-30 12:57 37.48136 23.45038 30753 ft 450 kts 141°
2026-04-30 12:57 37.45690 23.47455 30354 ft 450 kts 141°
2026-04-30 12:58 37.43252 23.49862 29957 ft 450 kts 141°
2026-04-30 12:58 37.40773 23.52307 29553 ft 450 kts 141°
2026-04-30 12:58 37.38315 23.54730 29153 ft 450 kts 141°
2026-04-30 12:58 37.35859 23.57149 28756 ft 453 kts 141°
2026-04-30 12:59 37.33406 23.59562 28346 ft 448 kts 141°
2026-04-30 12:59 37.31003 23.61924 27935 ft 426 kts 141°
2026-04-30 12:59 37.28759 23.64128 27539 ft 406 kts 141°
2026-04-30 12:59 37.26565 23.66281 27143 ft 395 kts 142°
2026-04-30 13:00 37.24425 23.68379 26744 ft 391 kts 142°
2026-04-30 13:00 37.22286 23.70475 26346 ft 392 kts 142°
2026-04-30 13:00 37.20141 23.72576 25948 ft 393 kts 142°
2026-04-30 13:00 37.18005 23.74665 25552 ft 393 kts 142°
2026-04-30 13:01 37.15838 23.76784 25151 ft 394 kts 142°
2026-04-30 13:01 37.13681 23.78891 24752 ft 394 kts 142°
2026-04-30 13:01 37.11529 23.80992 24352 ft 394 kts 142°
2026-04-30 13:01 37.09371 23.83097 23951 ft 393 kts 142°
2026-04-30 13:02 37.07255 23.85160 23555 ft 391 kts 142°
2026-04-30 13:02 37.05101 23.87259 23149 ft 388 kts 142°
2026-04-30 13:02 37.02992 23.89312 22749 ft 385 kts 142°
2026-04-30 13:02 37.00906 23.91341 22351 ft 382 kts 142°
2026-04-30 13:03 36.98827 23.93363 21952 ft 380 kts 142°
2026-04-30 13:03 36.96749 23.95381 21551 ft 379 kts 142°
2026-04-30 13:03 36.94648 23.97421 21164 ft 393 kts 142°
2026-04-30 13:03 36.92429 23.99572 20768 ft 418 kts 142°
2026-04-30 13:04 36.90083 24.01847 20363 ft 431 kts 142°
2026-04-30 13:04 36.87709 24.04147 19955 ft 427 kts 142°
2026-04-30 13:04 36.85392 24.06390 19553 ft 422 kts 142°
2026-04-30 13:04 36.83085 24.08620 19151 ft 419 kts 142°
2026-04-30 13:05 36.80794 24.10833 18751 ft 417 kts 142°
2026-04-30 13:05 36.78529 24.13020 18353 ft 415 kts 142°
2026-04-30 13:05 36.76255 24.15213 17952 ft 412 kts 142°
2026-04-30 13:06 36.71762 24.19542 17152 ft 408 kts 142°
2026-04-30 13:06 36.69516 24.21703 16749 ft 405 kts 142°
2026-04-30 13:06 36.67312 24.23822 16351 ft 403 kts 142°
2026-04-30 13:06 36.65089 24.25958 15948 ft 401 kts 142°
2026-04-30 13:07 36.62914 24.28047 15551 ft 398 kts 142°
2026-04-30 13:07 36.60737 24.30136 15152 ft 396 kts 142°
2026-04-30 13:07 36.58570 24.32213 14752 ft 394 kts 142°
2026-04-30 13:07 36.56411 24.34282 14437 ft 391 kts 142°
2026-04-30 13:08 36.54263 24.36339 14137 ft 390 kts 142°
2026-04-30 13:08 36.52134 24.38376 13839 ft 388 kts 142°
2026-04-30 13:08 36.49989 24.40427 13536 ft 387 kts 142°
2026-04-30 13:08 36.47863 24.42458 13236 ft 385 kts 142°
2026-04-30 13:09 36.45747 24.44479 12935 ft 383 kts 142°
2026-04-30 13:09 36.43666 24.46464 12638 ft 382 kts 142°
2026-04-30 13:09 36.41557 24.48475 12337 ft 380 kts 142°
2026-04-30 13:09 36.39456 24.50476 12035 ft 378 kts 142°
2026-04-30 13:10 36.37386 24.52447 11736 ft 377 kts 142°
2026-04-30 13:10 36.35319 24.54413 11437 ft 375 kts 142°
2026-04-30 13:10 36.33241 24.56389 11134 ft 374 kts 142°
2026-04-30 13:10 36.31195 24.58333 10836 ft 372 kts 142°
2026-04-30 13:11 36.29165 24.60261 10538 ft 370 kts 142°
2026-04-30 13:11 36.27121 24.62200 10237 ft 369 kts 142°
2026-04-30 13:11 36.25095 24.64121 9937 ft 367 kts 142°
2026-04-30 13:11 36.23075 24.66036 9637 ft 366 kts 143°
2026-04-30 13:12 36.21053 24.67950 9336 ft 364 kts 143°
2026-04-30 13:12 36.19048 24.69847 9035 ft 363 kts 143°
2026-04-30 13:12 36.17056 24.71732 8735 ft 361 kts 143°
2026-04-30 13:13 36.13110 24.75459 8138 ft 358 kts 143°
2026-04-30 13:13 36.11138 24.77321 7838 ft 356 kts 143°
2026-04-30 13:13 36.07211 24.81023 7236 ft 353 kts 143°
2026-04-30 13:14 36.05280 24.82842 6938 ft 352 kts 143°
2026-04-30 13:14 36.03320 24.84688 6635 ft 350 kts 143°
2026-04-30 13:14 35.99467 24.88311 6035 ft 348 kts 143°
2026-04-30 13:15 35.97551 24.90112 5735 ft 346 kts 143°
2026-04-30 13:15 35.93766 24.93665 5138 ft 343 kts 143°
2026-04-30 13:15 35.91857 24.95455 4836 ft 342 kts 143°
2026-04-30 13:16 35.89965 24.97229 4534 ft 340 kts 143°
2026-04-30 13:16 35.88101 24.98975 4236 ft 339 kts 143°
2026-04-30 13:16 35.86226 25.00730 3936 ft 338 kts 143°
2026-04-30 13:17 35.82563 25.04156 3326 ft 317 kts 143°
2026-04-30 13:17 35.80848 25.05759 3069 ft 301 kts 143°
2026-04-30 13:17 35.77626 25.08767 3076 ft 292 kts 143°
2026-04-30 13:18 35.76023 25.10263 3076 ft 292 kts 143°
2026-04-30 13:18 35.72773 25.13293 3076 ft 292 kts 143°
2026-04-30 13:18 35.71166 25.14790 3076 ft 292 kts 143°
2026-04-30 13:19 35.69544 25.16300 3076 ft 292 kts 143°
2026-04-30 13:19 35.67924 25.17808 3076 ft 292 kts 143°
2026-04-30 13:19 35.66312 25.19308 3077 ft 292 kts 143°
2026-04-30 13:19 35.64697 25.20809 3077 ft 292 kts 143°
2026-04-30 13:20 35.63088 25.22303 3077 ft 292 kts 143°
2026-04-30 13:20 35.61450 25.23825 3077 ft 292 kts 143°
2026-04-30 13:20 35.59846 25.25314 3077 ft 292 kts 143°
2026-04-30 13:20 35.58213 25.26828 3077 ft 292 kts 143°
2026-04-30 13:21 35.56608 25.28317 3077 ft 292 kts 143°
2026-04-30 13:21 35.54988 25.29818 3077 ft 292 kts 143°
2026-04-30 13:21 35.53371 25.31316 3077 ft 292 kts 143°
2026-04-30 13:22 35.50126 25.34320 3077 ft 292 kts 143°
2026-04-30 13:22 35.48513 25.35811 3076 ft 290 kts 143°
2026-04-30 13:22 35.45451 25.38409 3102 ft 237 kts 158°
2026-04-30 13:23 35.43950 25.38732 3075 ft 206 kts 182°
2026-04-30 13:23 35.41354 25.38116 2910 ft 187 kts 192°
2026-04-30 13:24 35.38828 25.37445 2672 ft 182 kts 192°
2026-04-30 13:24 35.36534 25.36834 2371 ft 163 kts 192°
2026-04-30 13:25 35.34315 25.36243 2310 ft 164 kts 192°
2026-04-30 13:25 35.32834 25.34539 2289 ft 151 kts 263°
2026-04-30 13:26 35.33095 25.30666 1935 ft 150 kts 275°
2026-04-30 13:26 35.33265 25.28237 1632 ft 141 kts 275°
2026-04-30 13:27 35.33450 25.25804 1213 ft 143 kts 275°
2026-04-30 13:28 35.33673 25.22204 554 ft 140 kts 275°
2026-04-30 13:28 35.33844 25.19824 234 ft 139 kts 274°
2026-04-30 13:28 35.33927 25.18664 89 ft 133 kts 275°
2026-04-30 13:29 35.33998 25.17625 85 ft 0 kts 273°